Theta_e
364 362 359 352 321 317 311 317 323 325 327 334 331 328 325 327 322 312 339 344 347 348 355 358 362 363 363 364 364 363 364 363 364 364 364 363 363 363 364 364 364 363 362 363 364 363 363 361 362
361 360 355 340 315 307 310 323 322 329 333 335 335 332 330 325 331 333 337 345 348 350 354 358 363 366 362 363 364 363 363 363 364 364 363 363 362 362 362 362 362 362 362 362 360 360 362 363 362
363 362 338 328 318 309 311 323 327 331 335 335 333 338 335 327 332 334 340 345 348 350 356 358 366 365 361 362 363 365 363 364 363 363 363 362 362 362 362 362 363 361 360 363 362 362 362 362 361
356 349 340 318 312 319 320 326 332 332 335 336 336 330 338 338 338 341 343 347 347 352 357 361 364 362 361 362 362 364 362 361 362 363 363 362 362 363 361 361 362 360 359 360 362 362 360 360 360
351 341 315 312 316 322 326 334 334 331 332 334 335 331 333 344 346 343 345 350 353 355 356 357 366 363 365 364 364 364 362 362 362 361 360 362 361 361 360 361 362 360 359 358 360 361 359 355 356
334 328 309 307 315 323 326 335 333 333 334 335 333 332 334 345 345 348 352 353 357 355 356 357 364 365 365 364 364 363 362 362 361 363 363 361 361 360 361 360 361 360 361 359 357 358 357 355 355
330 316 311 312 317 321 325 337 332 332 332 332 336 328 335 342 346 350 352 353 355 356 354 356 357 361 364 364 364 363 362 361 363 362 361 360 360 360 359 359 359 360 360 361 359 358 357 357 358
330 317 314 315 317 320 329 333 338 335 332 342 339 327 329 341 348 351 351 350 352 353 355 354 354 355 356 358 362 362 361 363 362 357 355 355 356 356 355 356 358 357 357 357 357 357 358 357 357
330 314 312 316 319 323 332 332 338 340 336 338 340 336 339 344 348 345 342 344 346 351 352 354 353 353 354 355 358 362 362 361 359 354 353 351 337 340 342 350 352 354 355 355 355 355 355 355 356
321 312 317 321 322 326 330 333 335 334 332 333 335 340 344 343 342 340 337 339 340 344 347 350 352 353 352 357 354 352 352 351 348 347 344 342 336 335 340 345 349 349 348 349 352 356 357 355 349
322 315 321 321 325 330 329 333 338 333 327 332 333 339 340 337 338 336 336 335 338 344 347 349 351 351 352 353 352 348 346 346 348 347 343 339 339 338 338 341 339 338 343 338 345 344 346 351 350
318 324 324 327 325 330 328 334 334 335 335 339 340 341 339 335 332 332 335 332 336 342 346 349 350 349 350 352 350 350 349 345 344 343 342 337 337 338 338 337 337 335 335 335 336 337 341 345 349
318 324 326 328 328 329 332 332 334 334 340 340 341 340 338 338 337 339 338 339 341 341 344 345 349 350 350 349 346 343 341 349 343 337 341 339 336 335 338 337 337 338 336 337 336 343 343 342 344
321 324 326 326 327 330 330 333 334 335 339 337 338 337 339 340 340 338 339 339 339 341 342 344 346 350 349 344 345 345 342 348 347 341 340 342 340 338 341 343 341 343 345 344 345 344 343 344 343
321 317 322 325 328 328 330 326 329 336 337 335 336 337 338 340 341 338 338 338 337 339 343 346 347 349 347 346 343 344 342 344 348 345 344 342 341 341 344 343 343 342 348 347 346 346 345 343 344
314 316 311 322 328 329 323 316 330 335 334 332 334 335 337 337 339 340 340 339 338 339 344 346 351 348 346 346 345 345 343 342 347 347 345 347 344 344 343 343 345 347 348 347 345 344 342 342 342
310 304 310 318 325 325 320 316 329 333 332 330 331 331 333 336 338 339 340 341 340 339 341 345 347 347 346 345 345 346 347 346 346 345 345 343 344 345 344 344 346 347 347 347 346 346 343 341 341
305 304 309 313 320 321 318 318 327 331 331 330 327 328 332 332 336 338 340 342 343 341 342 342 346 345 348 348 347 348 347 347 346 346 346 346 345 343 341 341 345 347 347 346 345 343 344 343 342
311 309 311 314 321 317 316 318 324 328 329 328 326 327 328 329 335 337 340 342 341 342 341 340 342 343 345 348 348 347 347 348 347 350 351 349 347 347 344 344 345 346 344 344 344 342 341 342 341
311 310 310 314 321 315 316 316 324 327 327 328 327 328 329 330 333 336 339 337 337 339 344 343 344 344 346 348 350 348 348 350 349 352 352 352 349 349 347 347 348 348 346 343 343 342 340 340 343
308 307 310 308 316 316 316 314 319 325 327 329 329 332 336 336 334 336 337 338 338 338 343 347 344 348 347 350 350 350 350 350 347 349 350 352 354 351 351 350 349 349 347 345 344 343 340 336 339
304 312 314 313 304 300 311 299 313 317 319 325 329 332 331 332 339 340 341 338 341 341 346 348 349 352 350 351 350 349 346 345 347 349 353 354 354 353 352 353 352 350 349 346 345 347 345 340 337
309 314 313 314 303 298 301 304 307 312 314 320 330 332 329 328 335 339 340 338 340 347 348 350 353 355 350 351 353 352 350 351 351 351 350 350 352 355 357 352 350 350 351 350 348 347 346 346 340
315 310 306 303 299 294 299 305 306 312 314 317 329 332 328 325 335 339 339 338 335 339 350 353 357 356 357 353 355 356 354 353 352 349 347 346 348 350 352 354 351 350 351 350 350 348 348 346 345
308 300 294 294 294 293 301 303 306 317 320 322 327 328 328 326 329 330 332 332 339 343 353 357 355 350 351 357 356 355 351 349 347 346 345 346 344 346 349 350 348 350 350 349 348 349 350 347 345
306 302 295 290 292 296 305 300 306 318 322 325 326 328 328 328 328 328 329 337 338 343 354 355 353 350 351 353 353 352 351 350 348 347 347 348 345 348 350 349 350 347 352 350 348 350 350 346 345
306 301 303 297 294 297 302 308 315 321 324 328 328 327 327 330 331 333 336 333 331 333 337 355 350 350 353 352 350 351 351 348 346 346 346 348 349 349 349 349 348 349 349 349 349 348 345 343 345
309 309 300 297 293 295 301 303 303 315 320 326 325 325 328 328 331 338 338 333 332 331 335 343 341 339 342 340 341 341 340 341 340 340 341 342 343 345 346 347 348 349 350 350 348 345 346 343 340
306 301 301 300 300 299 296 301 312 314 319 316 321 323 325 332 337 338 338 330 332 340 339 340 338 337 336 337 337 338 337 337 338 337 338 338 337 339 341 341 341 341 342 345 346 346 345 343 343
307 305 302 299 296 298 300 301 317 317 320 325 324 330 333 337 337 334 335 334 334 333 333 334 334 334 335 334 335 334 333 333 331 330 331 332 332 334 336 335 336 338 340 340 339 341 344 342 342
Wind_Speed
8 8 3 3 4 5 3 5 4 7 6 2 10 2 3 13 2 5 2 6 12 7 6 9 15 18 19 17 16 16 16 16 16 16 15 15 14 12 12 12 12 13 12 12 13 12 13 13 13
7 7 3 0 6 5 4 4 6 13 13 16 14 9 11 7 6 9 6 7 11 9 6 8 15 18 19 17 16 15 15 16 15 14 14 15 13 12 12 12 12 13 11 11 11 12 12 11 9
2 6 2 3 2 3 3 5 17 16 19 8 7 7 5 3 7 9 7 9 9 8 7 9 15 17 18 16 15 14 14 15 14 13 14 13 13 13 13 13 12 13 11 10 9 10 10 9 7
2 2 4 0 4 3 7 9 17 14 12 12 13 10 7 6 7 7 13 8 9 10 10 12 15 16 16 15 14 13 15 14 13 13 13 14 13 14 13 13 11 13 12 10 10 8 7 7 6
2 1 3 2 5 6 7 14 14 14 13 15 10 7 5 4 12 14 11 9 13 9 11 10 14 15 15 15 14 12 13 12 12 12 12 13 14 14 14 13 12 11 11 10 9 7 6 3 5
2 3 6 4 6 5 7 16 19 18 19 18 14 10 4 8 12 9 11 14 13 12 10 9 13 13 13 13 14 13 12 12 12 13 13 12 13 14 14 13 13 11 10 10 8 7 5 3 2
2 3 5 4 5 7 8 16 14 19 15 9 13 8 5 8 10 12 12 12 12 12 9 7 6 10 13 13 13 12 12 13 13 13 13 12 12 12 13 12 10 10 9 9 7 6 4 0 5
3 4 3 1 4 2 4 9 16 15 8 19 13 8 10 11 10 10 8 11 10 10 9 7 6 5 6 6 14 14 14 14 13 13 12 11 11 11 10 9 9 8 7 6 5 5 4 3 4
3 6 4 5 5 4 7 10 10 11 20 4 4 11 18 13 11 10 6 6 6 7 9 8 8 7 6 5 8 13 14 14 13 11 11 8 2 3 6 7 8 7 6 4 4 4 4 4 6
4 4 1 4 6 5 11 18 11 11 16 16 19 15 18 14 12 13 7 12 8 9 10 9 9 10 8 7 5 6 6 3 4 4 3 3 3 2 3 4 5 5 4 3 4 6 7 6 3
5 6 6 7 13 8 10 17 8 20 14 21 21 22 18 13 11 13 10 11 15 11 8 11 9 7 8 6 4 2 2 3 3 4 4 3 3 3 2 1 1 1 0 1 3 3 3 4 4
8 10 7 2 10 8 7 10 8 12 10 17 20 23 19 15 12 9 13 13 10 10 11 12 10 9 7 6 5 4 2 3 3 4 5 4 3 3 3 3 4 3 3 3 4 3 4 5 5
11 8 8 6 14 12 13 11 14 16 16 17 18 19 20 16 14 12 12 11 11 12 14 12 12 11 8 9 6 5 6 5 6 5 5 4 4 4 3 4 4 4 3 4 4 3 3 4 5
7 12 11 10 10 10 15 17 8 15 17 18 17 18 16 17 16 13 11 12 13 11 14 14 15 13 11 7 9 7 6 6 6 6 7 8 5 5 4 4 4 4 4 4 3 4 4 4 4
10 8 9 10 10 7 13 4 12 18 17 16 18 18 16 16 13 14 15 11 15 11 12 16 15 14 13 11 6 5 6 7 6 7 8 9 8 6 6 4 4 4 4 4 3 4 3 3 5
4 6 8 10 12 7 7 6 16 17 18 16 15 14 16 15 18 14 13 10 10 12 13 13 13 15 12 10 7 5 4 6 7 7 6 8 9 8 6 4 5 4 3 3 3 4 3 4 4
6 7 6 5 12 8 3 6 16 17 16 15 14 12 13 17 16 12 13 13 12 14 11 13 13 14 13 8 7 7 7 7 7 4 5 8 8 7 6 5 4 5 4 4 3 4 3 4 4
5 4 5 7 9 10 6 6 19 18 16 15 11 11 14 14 17 12 12 11 8 12 16 15 13 14 11 8 6 4 4 6 6 7 7 8 7 8 7 5 5 5 4 4 4 5 3 4 4
13 6 4 4 10 8 12 8 20 19 15 14 12 13 15 17 14 15 16 15 9 7 11 13 13 11 9 6 6 4 6 5 5 6 9 8 6 8 7 5 6 4 5 6 5 3 5 4 3
11 3 6 9 12 6 8 11 17 18 18 17 16 15 11 7 7 11 13 14 14 14 10 9 11 10 10 8 6 3 3 3 4 4 6 8 6 8 8 8 7 7 4 5 5 5 3 3 4
10 5 8 8 9 5 7 4 10 9 7 11 9 15 16 5 7 8 7 12 13 13 14 11 9 9 8 7 4 2 2 1 1 4 4 7 8 9 10 9 7 7 5 5 6 6 7 4 3
8 7 11 8 7 7 4 5 5 3 6 7 12 16 20 14 11 8 8 7 11 13 10 9 7 9 8 8 5 6 4 4 4 3 3 5 6 7 9 9 10 8 5 6 6 6 5 4 6
12 9 4 3 4 4 5 7 6 3 0 9 15 19 16 13 21 17 19 9 6 10 11 10 7 7 6 7 5 4 4 4 3 2 4 4 5 6 7 7 6 7 6 7 8 5 7 6 4
9 3 8 6 4 4 5 7 4 6 6 4 9 13 17 22 18 15 10 8 6 4 12 9 9 6 6 6 6 6 5 4 2 2 3 3 3 4 6 6 6 7 7 8 7 7 8 8 7
1 8 4 6 6 7 6 5 7 5 8 11 13 13 14 14 7 5 10 11 10 4 10 9 10 7 4 6 3 3 3 2 3 2 2 2 2 2 5 5 5 4 7 7 6 7 8 8 6
8 9 8 5 3 6 3 1 4 7 11 10 12 10 6 5 13 12 10 7 10 13 3 9 11 8 6 6 3 3 2 1 1 2 2 3 2 3 3 3 5 6 6 5 5 5 6 4 5
7 1 7 7 3 5 1 4 6 15 9 9 11 13 11 9 14 14 4 12 18 19 20 9 7 10 7 2 3 3 5 4 5 7 5 4 5 4 5 5 4 4 4 5 5 4 5 4 5
9 6 2 4 2 1 2 2 4 8 9 14 15 16 9 4 14 9 13 24 22 24 22 15 11 14 10 9 7 8 8 9 7 6 7 7 8 9 8 8 7 7 6 5 4 3 4 3 4
3 1 5 7 6 7 4 6 3 4 12 15 14 16 8 4 5 5 14 16 10 8 6 9 11 11 9 7 8 9 9 9 9 9 9 9 8 9 9 8 8 8 7 7 6 6 5 5 4
7 11 7 6 3 3 4 5 2 6 11 17 15 17 12 3 5 6 9 9 11 9 7 9 8 9 6 5 9 9 8 7 8 7 7 8 8 8 10 10 9 10 10 9 8 7 7 6 5
Wind_Direction
150 158 170 190 41 70 19 5 152 127 120 162 123 105 66 49 34 153 168 157 130 127 132 131 127 122 116 115 113 109 105 102 100 102 109 110 107 111 112 109 108 111 116 113 106 102 103 104 108
161 164 233 128 75 72 297 359 88 99 117 111 97 86 36 78 66 106 128 159 138 135 134 135 134 125 124 124 121 121 119 112 112 113 120 115 120 119 111 112 113 112 110 110 108 108 102 98 104
246 229 82 57 109 140 121 356 123 124 153 125 108 42 57 69 123 157 147 146 131 129 123 143 123 123 131 130 132 129 128 124 126 132 124 124 127 127 122 122 125 117 118 109 107 102 104 107 103
216 11 24 309 91 48 132 112 125 117 93 82 122 74 66 141 164 147 146 131 118 134 132 136 131 133 137 138 139 137 130 135 135 132 123 127 128 128 126 127 127 126 123 119 114 108 108 100 95
283 179 38 341 18 91 118 116 104 91 97 107 92 106 75 70 104 126 137 141 128 133 133 137 142 145 148 153 147 141 141 137 134 127 129 127 125 125 121 127 131 128 129 129 127 126 111 120 119
355 105 55 42 41 22 100 108 100 96 106 105 98 101 72 124 111 131 134 126 132 131 132 145 143 151 149 146 140 144 142 139 136 133 125 127 128 124 123 129 133 134 136 137 143 142 146 172 174
155 92 155 111 70 43 85 130 126 131 136 112 131 101 146 124 135 129 121 126 132 132 134 135 149 158 154 149 144 146 145 147 138 138 139 134 129 124 123 129 130 134 134 135 148 149 163 270 321
169 119 104 117 107 67 90 113 149 142 94 125 141 155 165 164 126 107 82 121 126 140 142 145 144 134 137 152 151 152 152 149 155 155 150 145 135 123 118 123 136 132 136 145 162 167 187 224 278
97 78 132 165 128 175 91 85 128 89 130 207 172 137 155 139 128 110 87 104 117 151 157 160 159 154 161 155 158 157 162 164 170 173 176 155 102 110 112 134 136 140 150 162 180 221 242 251 266
115 100 116 132 152 132 123 113 113 108 105 100 114 120 136 148 149 142 167 159 160 169 177 175 173 168 164 164 156 147 167 154 160 176 173 154 151 159 180 180 164 154 171 198 237 248 251 257 226
145 146 185 112 91 119 127 117 124 115 125 144 142 141 150 156 173 161 181 185 185 182 182 185 179 169 157 144 124 116 142 159 171 189 190 188 182 165 172 216 305 344 30 22 302 297 296 234 224
111 151 148 215 95 89 123 128 108 111 153 143 145 149 156 166 173 180 182 193 194 180 195 187 172 172 180 144 130 133 175 185 195 197 198 189 197 199 194 212 228 233 250 257 259 267 275 258 245
122 150 137 152 123 122 121 120 118 116 140 150 150 156 164 169 181 191 193 191 190 196 191 186 176 172 164 148 156 175 200 207 206 201 212 204 200 205 213 219 211 221 226 216 232 244 268 268 254
182 147 127 150 147 134 117 125 109 149 151 159 162 173 172 178 182 183 190 193 200 195 185 179 179 178 167 170 189 178 192 197 203 208 211 210 207 203 206 216 219 226 216 228 216 230 243 258 274
152 118 127 162 150 125 121 73 136 162 160 170 179 178 178 183 188 189 188 175 174 183 169 174 172 173 178 185 202 171 196 190 205 213 206 205 209 211 202 205 203 215 221 225 246 250 235 241 256
135 91 141 211 153 191 87 204 161 171 165 183 189 182 181 184 193 197 193 193 170 162 172 169 171 179 181 182 192 199 198 208 218 214 204 204 207 207 214 215 219 198 200 213 218 246 252 231 215
359 165 194 192 207 152 162 139 174 177 177 189 186 188 177 178 191 189 194 191 166 172 167 175 175 178 188 183 185 198 202 210 215 206 210 214 210 206 208 220 219 203 211 208 202 245 211 248 241
261 223 179 190 216 177 188 182 170 182 182 199 166 170 163 175 188 182 188 190 173 176 179 180 180 182 182 177 180 204 209 214 217 220 218 215 212 208 209 221 224 208 218 226 201 210 217 235 239
276 244 246 213 186 152 194 158 177 182 187 188 175 174 170 178 190 176 175 176 167 177 184 185 176 179 167 166 176 193 211 218 232 229 222 211 209 208 198 214 220 208 215 221 207 191 203 247 220
269 153 264 288 181 125 174 200 179 186 194 187 178 182 168 182 167 174 171 173 179 187 187 210 195 175 185 186 188 171 171 197 223 231 236 220 204 206 201 201 220 210 213 219 200 193 198 206 184
278 183 233 208 162 202 122 9 189 206 214 185 168 93 89 13 52 350 323 197 193 196 195 204 188 177 198 174 119 79 77 337 316 243 249 230 216 210 208 203 203 212 198 211 213 196 191 219 223
268 220 201 230 123 202 174 222 213 349 261 132 131 123 136 165 180 223 247 225 215 210 205 205 190 176 188 151 172 179 199 204 223 231 246 269 227 216 223 211 209 207 199 205 209 208 202 178 224
249 248 308 151 169 55 355 76 266 55 230 146 148 154 175 182 181 189 212 230 200 213 204 197 181 168 167 195 167 174 202 230 226 233 269 287 287 238 224 205 204 198 205 215 206 196 209 204 184
276 257 36 56 87 35 269 126 267 170 143 309 154 159 177 187 197 190 178 249 288 253 211 186 167 170 176 176 187 189 229 256 242 270 296 306 288 274 255 222 207 208 209 209 216 208 211 218 216
41 61 1 1 10 227 228 82 207 247 99 161 159 190 196 206 185 295 7 21 347 298 195 167 142 131 150 140 171 185 217 182 221 208 226 276 303 297 294 232 217 221 214 224 219 215 219 220 213
228 146 152 192 205 263 31 50 279 67 73 127 151 165 192 345 355 10 18 5 356 353 166 134 134 127 105 102 164 198 182 199 239 222 238 268 240 258 293 274 265 232 229 238 217 232 237 212 182
252 149 191 117 132 74 251 330 312 69 60 56 100 83 59 20 333 343 318 76 13 334 289 149 91 102 105 80 323 317 358 328 347 349 353 347 326 313 320 321 304 286 268 251 249 249 251 234 201
163 172 80 8 117 90 351 145 236 71 90 82 90 89 94 67 307 274 176 134 187 214 234 69 75 68 77 49 33 64 39 43 44 38 26 28 5 6 17 5 354 332 302 283 281 269 273 238 228
273 348 65 116 122 153 150 252 244 168 144 130 120 123 155 178 19 272 135 161 197 214 82 77 68 81 51 47 45 41 33 33 30 27 21 22 8 359 12 13 9 3 350 339 321 287 272 259 252
228 193 156 135 239 79 126 259 169 244 158 136 118 125 121 97 343 296 99 106 93 70 55 70 56 78 66 63 61 52 46 32 36 21 9 9 8 4 10 7 7 1 355 350 340 324 323 296 265